Weather History for Pine Bluff, AR

Change the Weather History Date:

Sunday, March 24, 2013

  Actual Average Record
Temperature  
Mean Temperature 41 °F 57 °F  
Max Temperature 48 °F 68 °F 95 °F (1929)
Min Temperature 34 °F 46 °F 28 °F (1974)
Degree Days  
Heating Degree Days 24 9  
Month to date heating degree days 387 291  
Since 1 July heating degree days 2598 2679  
Cooling Degree Days 0 1  
Month to date cooling degree days 3 9  
Year to date cooling degree days 8 12  
Moisture  
Dew Point 39 °F    
Average Humidity 78    
Maximum Humidity 100    
Minimum Humidity 55    
Precipitation  
Precipitation 0.02 in 0.17 in 2.05 in (1912)
Month to date precipitation 2.23 4.23  
Year to date precipitation 13.54 12.05  
Snow  
Snow 0.00 in 0.00 in - ()
Month to date snowfall 0.0 0.0  
Since 1 July snowfall 2.1 3.1  
Snow Depth 0.00 in    
Sea Level Pressure  
Sea Level Pressure 29.79 in    
Wind  
Wind Speed 15 mph (WNW)    
Max Wind Speed 32 mph    
Max Gust Speed 44 mph    
Visibility 6 miles    
Events Rain    
T = Trace of Precipitation, MM = Missing Value Source: NWS Daily Summary

Daily Weather History Graph

Daily Weather History Graph

Search for Another Location

Airport:

Trip Planner

Search our weather history database for the weather conditions in past years. The results will help you decide how hot, cold, wet, or windy it might be!

Date:

Astronomy

Mar. 24, 2013 Rise Set
Actual Time 7:05 AM CDT 7:22 PM CDT
Civil Twilight 6:40 AM CDT 7:47 PM CDT
Nautical Twilight 6:11 AM CDT 8:17 PM CDT
Astronomical Twilight 5:41 AM CDT 8:46 PM CDT
Moon 4:56 PM CDT (3/24) 5:09 AM CDT (3/24)
Length of Visible Light 13h 07m
Length of Day
12h 17m
Waxing Gibbous, 92% of the Moon is Illuminated
Mar 24
Waxing Gibbous
Mar 27
Full
Apr 2
Last Quarter
Apr 10
New
Apr 18
First Quarter

Hourly Weather History & Observations

Time (CDT) Temp. Windchill Dew Point Humidity Pressure Visibility Wind Dir Wind Speed Gust Speed Precip Events Conditions
12:21 AM 48.2 °F - 46.4 °F 93% 29.68 in 3.0 mi NW 6.9 mph - N/A   Overcast
12:53 AM 48.0 °F - 46.9 °F 96% 29.68 in 3.0 mi NW 5.8 mph - N/A   Overcast
1:53 AM 46.9 °F - 46.9 °F 100% 29.65 in 3.0 mi NNE 4.6 mph - N/A   Overcast
2:11 AM 46.4 °F 44.3 °F 46.4 °F 100% 29.65 in 2.5 mi North 4.6 mph - N/A   Overcast
2:53 AM 46.9 °F - 46.0 °F 97% 29.69 in 2.0 mi NW 10.4 mph - N/A   Overcast
3:01 AM 46.4 °F 41.5 °F 46.4 °F 100% 29.70 in 1.8 mi NW 10.4 mph - N/A   Overcast
3:53 AM 46.9 °F - 46.9 °F 100% 29.72 in 1.5 mi WNW 8.1 mph - N/A   Overcast
4:53 AM 46.9 °F - 46.0 °F 97% 29.69 in 1.8 mi NW 8.1 mph - N/A   Overcast
5:02 AM 46.4 °F 42.9 °F 46.4 °F 100% 29.69 in 2.0 mi WNW 6.9 mph - N/A   Overcast
5:17 AM 46.4 °F 44.3 °F 46.4 °F 100% 29.70 in 3.0 mi Variable 4.6 mph - N/A   Overcast
5:53 AM 46.9 °F - 46.0 °F 97% 29.70 in 3.0 mi WSW 4.6 mph - 0.00 in Rain Light Rain
6:53 AM 46.9 °F - 46.0 °F 97% 29.69 in 5.0 mi SW 4.6 mph - N/A   Overcast
7:02 AM 46.4 °F 42.9 °F 46.4 °F 100% 29.69 in 5.0 mi WSW 6.9 mph - N/A   Overcast
7:53 AM 46.9 °F - 46.0 °F 97% 29.69 in 6.0 mi WSW 6.9 mph - 0.01 in   Overcast
8:04 AM 46.4 °F 42.4 °F 46.4 °F 100% 29.70 in 5.0 mi West 8.1 mph - N/A   Overcast
8:08 AM 46.4 °F 41.5 °F 46.4 °F 100% 29.70 in 2.5 mi West 10.4 mph - 0.00 in Rain Light Rain
8:18 AM 46.4 °F 42.4 °F 46.4 °F 100% 29.70 in 1.8 mi West 8.1 mph - 0.00 in Rain Light Rain
8:25 AM 46.4 °F 42.9 °F 46.4 °F 100% 29.70 in 2.5 mi West 6.9 mph - 0.00 in Rain Light Rain
8:42 AM 48.2 °F - 46.4 °F 93% 29.71 in 6.0 mi West 15.0 mph 19.6 mph 0.00 in Rain Light Rain
8:53 AM 46.9 °F - 46.0 °F 97% 29.72 in 7.0 mi West 15.0 mph - 0.00 in Rain Light Rain
9:18 AM 46.4 °F 38.3 °F 42.8 °F 87% 29.72 in 10.0 mi West 23.0 mph 31.1 mph 0.00 in   Overcast
9:28 AM 46.4 °F 39.8 °F 41.0 °F 81% 29.72 in 10.0 mi West 16.1 mph 31.1 mph 0.00 in   Overcast
9:53 AM 46.0 °F 37.0 °F 39.0 °F 76% 29.74 in 10.0 mi West 27.6 mph 38.0 mph 0.01 in   Overcast
10:53 AM 44.1 °F 35.2 °F 33.1 °F 65% 29.78 in 10.0 mi West 23.0 mph 35.7 mph N/A   Overcast
11:53 AM 44.1 °F 35.7 °F 32.0 °F 63% 29.81 in 10.0 mi West 20.7 mph 35.7 mph N/A   Overcast
12:53 PM 45.0 °F 36.4 °F 30.9 °F 58% 29.82 in 10.0 mi West 23.0 mph 31.1 mph N/A   Overcast
1:53 PM 45.0 °F 36.2 °F 30.9 °F 58% 29.83 in 10.0 mi West 24.2 mph 38.0 mph N/A   Mostly Cloudy
2:53 PM 46.0 °F 37.4 °F 32.0 °F 58% 29.85 in 10.0 mi West 25.3 mph 36.8 mph N/A   Mostly Cloudy
3:53 PM 45.0 °F 36.2 °F 30.0 °F 56% 29.88 in 10.0 mi WNW 24.2 mph 34.5 mph N/A   Overcast
4:53 PM 43.0 °F 34.5 °F 28.9 °F 58% 29.91 in 10.0 mi WNW 19.6 mph 31.1 mph N/A   Overcast
5:53 PM 42.1 °F 32.3 °F 28.0 °F 58% 29.95 in 10.0 mi WNW 24.2 mph 32.2 mph N/A   Overcast
6:53 PM 41.0 °F 33.1 °F 27.0 °F 57% 29.98 in 10.0 mi WNW 15.0 mph - N/A   Overcast
7:53 PM 39.9 °F 31.4 °F 27.0 °F 60% 30.01 in 10.0 mi WNW 16.1 mph - N/A   Overcast
8:53 PM 39.0 °F 31.0 °F 26.1 °F 60% 30.03 in 10.0 mi WNW 13.8 mph 26.5 mph N/A   Clear
9:53 PM 37.0 °F 28.9 °F 25.0 °F 62% 30.06 in 10.0 mi NW 12.7 mph 24.2 mph N/A   Clear
10:53 PM 36.0 °F 27.5 °F 25.0 °F 64% 30.08 in 10.0 mi WNW 12.7 mph 20.7 mph N/A   Clear
11:53 PM 35.1 °F 25.5 °F 24.1 °F 64% 30.08 in 10.0 mi NW 15.0 mph - N/A   Clear